Snowfall_Accumulation
0.0 0.3 0.4 0.7 0.4 0.0 0.0 0.0 0.0 0.0 0.1 0.0 0.0 0.0 0.0 0.0 0.0 0.0 0.0 0.0 0.0 0.0 0.0 0.0 0.0 0.0 0.0
0.1 1.2 2.2 1.8 0.8 0.3 0.0 0.1 0.0 0.0 0.0 0.0 0.0 0.0 0.0 0.0 0.3 0.2 0.2 0.0 0.0 0.0 0.0 0.0 0.0 0.0 0.0
1.0 1.7 0.9 0.5 0.3 0.1 0.0 0.0 0.0 0.0 0.0 0.0 0.0 0.0 0.0 0.1 0.2 0.1 0.4 0.4 0.4 0.3 0.2 0.0 0.0 0.0 0.0
0.7 1.3 1.4 0.2 0.2 0.1 0.1 0.0 0.0 0.0 0.0 0.0 0.1 0.0 0.0 0.0 0.0 0.0 0.0 0.0 0.0 0.0 0.0 0.1 0.1 0.0 0.0
2.3 2.2 0.7 0.4 0.8 0.0 0.0 0.0 0.2 0.0 0.0 0.0 0.0 0.0 0.0 0.0 0.0 0.0 0.1 0.0 0.2 0.4 0.3 0.5 0.6 0.6 0.1
3.3 0.6 0.0 0.4 0.0 0.0 1.5 3.1 0.8 0.0 0.2 0.1 0.0 0.0 0.0 0.0 0.0 0.0 0.1 0.1 0.1 0.3 0.6 0.7 0.8 0.7 0.0
0.7 0.1 0.1 0.2 2.5 6.1 1.6 2.6 2.9 0.0 0.3 0.5 0.1 0.0 0.0 0.0 0.0 0.0 0.0 0.2 0.2 0.4 0.7 0.8 0.7 0.7 0.5
0.1 0.2 0.7 0.5 0.5 1.6 1.6 2.1 0.4 0.1 0.3 2.0 0.2 0.1 0.0 0.0 0.0 0.0 0.1 0.3 0.9 0.6 1.2 0.7 0.9 0.3 0.4
0.6 0.3 0.1 0.0 0.0 1.3 4.4 5.7 3.0 0.0 0.0 1.0 0.2 0.0 0.0 0.0 0.0 0.1 0.4 0.5 0.4 0.3 0.7 0.8 0.9 0.8 0.9
0.0 0.0 0.0 0.0 0.0 0.1 2.4 9.9 6.6 5.1 0.0 3.4 0.9 1.4 6.6 0.7 0.0 0.0 0.0 0.0 0.1 0.2 0.3 0.5 0.6 0.8 1.1
0.0 0.0 0.0 0.0 0.1 0.1 0.6 5.0 9.4 7.7 0.0 7.5 9.4 4.5 12.0 6.8 2.9 2.7 0.0 0.0 1.5 1.1 0.5 1.3 2.0 2.3 4.6
0.2 0.2 0.1 0.1 0.0 0.0 0.1 0.5 1.3 4.8 1.7 3.4 20.8 8.5 15.6 11.2 4.3 2.5 3.0 4.1 5.0 8.4 7.9 6.8 2.8 3.2 2.9
1.0 0.6 0.4 0.1 0.2 0.2 0.0 0.0 0.0 2.9 3.1 3.3 7.6 10.0 13.1 12.9 7.5 3.9 5.8 2.9 7.1 10.2 7.7 6.0 6.6 4.9 7.3
2.4 1.7 1.5 2.2 3.3 3.3 4.4 3.5 5.6 5.3 5.3 6.5 7.3 8.6 11.1 6.1 8.6 5.2 4.1 8.8 5.5 7.3 7.1 6.0 5.3 4.6 5.7
5.3 6.9 5.7 4.7 4.3 4.3 5.2 7.3 9.5 5.9 6.5 6.7 6.3 7.7 7.2 6.3 7.7 4.4 4.9 5.7 7.2 9.4 8.2 6.7 6.9 7.9 4.8
8.6 8.5 8.8 8.2 7.4 6.4 6.6 7.5 7.8 6.1 6.1 6.4 8.2 8.1 5.9 3.5 3.9 6.4 5.7 6.0 8.0 8.6 8.9 10.6 7.8 10.2 2.3
10.6 9.5 9.6 9.6 10.5 8.5 7.6 8.0 6.9 5.6 6.0 6.2 7.9 11.2 13.5 6.3 3.1 5.3 11.8 9.3 7.7 7.1 6.8 7.8 9.7 9.8 4.0